EHI
3 3 2 1 0 0 0 0 0 0 0 1 2 3 3 2 1 1 2 1 0 0 0 0 0 0 0 0 0 0 0 0 0 0 0 0 0 0
3 3 3 1 0 0 0 0 0 0 0 0 1 2 2 1 1 2 2 1 0 0 0 0 0 0 0 0 0 0 0 0 0 0 0 0 0 0
3 3 3 2 1 0 0 0 0 0 0 0 0 1 1 0 1 2 2 1 0 0 0 0 0 0 0 0 0 0 0 0 0 0 0 0 0 0
3 3 3 3 2 2 1 1 0 0 0 0 0 0 0 0 1 2 2 1 0 0 0 0 0 0 0 0 0 0 0 0 0 0 0 0 0 0
3 3 3 3 3 3 2 1 0 0 0 0 0 0 0 0 0 1 1 1 0 0 0 0 0 0 0 0 0 0 0 0 0 0 0 0 0 0
3 3 3 3 3 3 3 2 1 0 0 0 0 0 0 0 0 0 0 0 0 0 0 0 0 0 0 0 0 0 0 0 0 0 0 0 0 0
3 3 3 3 2 2 2 2 1 0 0 0 0 0 0 0 0 0 0 0 0 0 0 0 0 0 0 0 0 0 0 0 0 0 0 0 0 0
3 3 3 1 1 1 1 1 0 0 0 0 0 0 0 0 0 0 0 0 0 0 0 0 0 0 0 0 0 0 0 0 0 0 0 0 0 0
3 3 3 1 0 0 0 0 0 0 0 0 0 0 0 0 0 0 0 0 0 0 0 0 0 0 0 0 0 0 0 0 0 0 0 0 0 0
3 3 3 2 1 0 0 0 0 0 0 0 0 0 0 0 0 0 0 0 0 0 0 0 0 0 0 0 0 0 0 0 0 0 0 0 0 0
3 3 3 2 1 0 0 0 0 0 0 0 0 0 0 0 0 0 0 0 0 0 0 0 0 0 0 0 0 0 0 0 0 0 0 0 0 0
3 3 2 1 0 0 0 0 0 0 0 0 0 0 0 0 0 0 0 0 0 0 0 0 0 0 0 0 0 0 0 0 0 0 0 0 0 0
3 3 2 0 0 0 0 0 0 0 0 0 0 0 0 0 0 0 0 0 0 0 0 0 0 0 0 0 0 0 0 0 0 0 0 0 0 0
3 2 1 0 0 0 0 0 0 0 0 0 0 0 0 0 0 0 0 0 0 0 0 0 0 0 0 0 0 0 0 0 0 0 0 0 0 0
2 1 0 0 0 0 0 0 0 0 0 0 0 0 0 0 0 0 0 0 0 0 0 0 0 0 0 0 0 0 0 0 0 0 0 0 0 0
1 0 0 0 0 0 0 0 0 0 0 0 0 0 0 0 0 0 0 0 0 0 0 0 0 0 0 0 0 0 0 0 0 0 0 0 0 0
0 0 0 0 0 0 0 0 0 0 0 0 0 0 0 0 0 0 0 0 0 0 0 0 0 0 0 0 0 0 0 0 0 0 0 0 0 0
0 0 0 0 0 0 0 0 0 0 0 0 0 0 0 0 0 0 0 0 0 0 0 0 0 0 0 0 0 0 0 0 0 0 0 0 0 0
0 0 0 0 0 0 0 0 0 0 0 0 0 0 0 0 0 0 0 0 0 0 0 0 0 0 0 0 0 0 0 0 0 0 0 0 0 0
0 0 0 0 0 0 0 0 0 0 0 0 0 0 0 0 0 0 0 0 0 0 0 0 0 0 0 0 0 0 0 0 0 0 0 0 0 0
0 0 0 0 0 0 0 0 0 0 0 0 0 0 0 0 0 0 0 0 0 0 0 0 0 0 0 0 0 0 0 0 0 0 0 0 0 0
0 0 0 0 0 0 0 0 0 0 0 0 0 0 0 0 0 0 0 0 0 0 0 0 0 0 0 0 0 0 0 0 0 0 0 0 0 0
0 0 0 0 0 0 0 0 0 0 0 0 0 0 0 0 0 0 0 0 0 0 0 0 0 0 0 0 0 0 0 0 0 0 0 0 0 0
Wind_Speed
1 1 1 1 0 0 0 1 1 0 2 2 2 2 2 2 2 1 3 7 5 5 5 5 5 6 6 6 5 5 5 6 6 6 7 7 8 8
1 1 1 1 1 1 0 0 1 1 1 2 1 2 2 2 3 2 3 6 5 4 4 4 4 4 5 5 5 5 5 5 5 5 6 6 7 7
2 2 2 2 1 1 1 0 1 1 1 2 2 2 2 1 2 1 1 1 3 5 3 3 3 4 4 4 5 5 5 5 5 5 5 5 5 6
2 2 3 2 2 1 1 1 1 1 0 1 2 1 1 1 1 1 1 1 1 5 3 3 3 3 3 3 4 4 4 4 4 5 5 5 6 6
2 2 2 3 3 2 1 1 1 1 0 1 2 1 1 1 0 0 0 0 0 2 2 2 1 1 2 2 3 3 3 4 4 5 5 5 6 6
2 2 2 2 2 2 1 1 1 1 1 1 1 1 1 0 1 1 1 0 1 1 0 0 2 2 1 1 1 2 2 2 3 4 4 5 5 6
2 2 2 3 3 2 1 1 1 1 1 1 1 1 1 1 1 1 2 2 1 1 2 1 1 2 2 3 2 1 1 1 2 2 3 4 5 5
3 3 3 4 4 3 2 1 1 1 1 2 2 2 2 2 1 2 2 2 2 0 2 2 1 2 2 1 2 1 1 2 2 2 3 3 4 5
3 3 2 2 3 3 4 5 3 1 2 3 3 2 2 1 2 3 3 3 3 1 2 3 2 2 2 0 2 1 2 3 3 3 4 4 4 5
3 3 3 3 2 1 2 3 2 2 2 3 3 2 2 2 2 3 4 3 3 1 2 3 2 3 2 1 2 2 3 3 4 4 4 5 5 5
3 2 2 2 3 1 3 3 3 2 2 1 3 3 3 2 2 2 2 3 3 2 1 3 3 3 3 3 2 3 4 4 4 5 5 5 6 7
3 3 2 1 3 3 4 3 3 2 2 2 2 2 2 2 3 4 3 3 3 3 1 2 3 3 3 2 2 2 3 4 5 4 4 4 5 6
3 2 2 4 3 3 3 3 1 2 2 2 1 1 1 2 2 3 3 4 4 4 1 2 3 4 4 3 3 3 3 3 4 4 4 4 4 5
2 2 2 5 3 3 3 0 1 1 2 2 2 2 2 2 2 2 3 3 4 5 3 3 4 4 5 5 4 3 4 4 4 4 4 4 6 7
1 2 2 3 3 3 3 2 3 3 2 2 2 2 2 2 1 1 2 3 4 3 3 4 5 4 5 6 5 4 4 4 4 4 4 4 4 4
2 3 4 4 3 1 2 4 3 2 3 3 2 2 1 1 2 2 2 2 3 3 4 5 5 6 5 6 6 6 5 4 3 4 5 5 5 4
3 3 3 3 3 2 2 2 2 2 3 3 3 2 2 3 3 3 3 3 4 4 3 2 3 4 5 6 6 5 5 5 4 4 5 5 5 5
4 4 4 3 3 3 3 3 3 3 3 3 3 3 3 4 4 3 3 4 5 5 4 3 2 3 4 4 4 6 5 5 5 5 5 6 6 5
5 4 4 4 4 4 3 4 4 4 3 4 4 4 4 4 4 4 4 4 5 5 4 3 3 4 6 6 4 4 6 5 4 5 5 6 7 5
4 4 4 4 4 4 4 4 4 4 4 4 4 5 5 5 5 5 5 5 5 5 5 4 4 5 6 6 5 4 6 6 5 6 6 6 6 5
5 5 5 5 4 4 4 4 4 4 4 4 5 5 4 4 5 5 5 5 6 6 6 5 4 4 5 5 5 5 4 5 6 6 6 6 6 6
5 5 5 5 5 5 5 5 5 5 5 5 5 5 5 5 5 6 5 5 5 5 6 4 3 3 4 6 6 6 5 4 5 7 8 7 6 6
5 5 5 5 5 5 5 6 7 6 5 5 5 5 5 5 5 5 5 6 5 5 5 4 3 4 5 5 6 6 7 6 5 5 5 5 8 10
Wind_Direction
109 117 111 100 104 71 293 270 293 245 108 96 92 85 78 68 57 78 82 87 76 64 61 55 46 40 37 32 29 33 34 33 30 26 24 20 18 17
96 100 100 102 97 114 166 292 321 321 72 92 94 100 85 84 67 45 72 99 88 75 64 57 49 42 36 29 29 33 29 26 23 20 17 14 15 13
133 125 120 100 110 116 129 128 25 6 106 100 107 102 110 96 100 66 95 112 101 99 77 57 49 44 36 38 42 39 31 25 18 11 11 10 5 5
134 134 131 125 120 105 117 120 83 12 124 127 134 122 107 70 48 24 41 49 75 100 94 67 51 46 40 42 43 39 29 20 16 11 5 3 4 2
145 138 128 132 134 122 140 131 118 101 86 161 127 109 136 72 33 2 326 4 354 118 140 136 96 53 51 48 42 35 30 25 16 7 2 358 354 351
143 135 135 143 139 143 153 146 137 136 138 152 147 155 155 160 263 297 298 281 282 310 344 140 155 181 179 134 44 30 27 18 3 360 360 355 352 348
155 149 118 85 55 43 28 156 160 173 173 182 188 201 195 204 250 271 284 286 269 300 288 261 230 232 200 191 203 245 325 332 339 348 350 347 344 341
178 167 148 158 144 146 108 45 6 232 219 212 228 239 248 240 257 262 269 276 283 331 289 282 278 281 275 274 92 145 251 279 293 304 315 323 327 328
192 177 163 160 195 185 168 177 185 231 281 278 269 274 269 263 255 261 269 281 291 323 287 280 274 277 283 56 112 205 274 279 283 287 291 297 306 308
200 200 188 187 173 222 199 197 196 190 221 245 274 295 312 307 273 275 282 280 269 255 278 281 285 288 285 261 159 223 262 275 283 288 291 294 295 296
199 203 207 205 116 182 231 224 217 196 133 57 3 15 33 13 317 263 256 254 266 255 242 278 292 292 280 267 206 209 246 258 274 281 287 294 294 282
200 186 150 228 130 189 231 231 233 226 207 189 196 200 216 196 230 247 253 265 277 274 250 275 285 294 279 266 277 242 238 227 237 246 265 286 301 285
210 205 164 146 165 197 244 253 284 286 234 239 232 212 214 221 225 249 267 276 276 278 273 261 275 275 280 285 283 277 278 276 259 242 233 245 266 280
221 218 154 147 173 206 231 165 103 229 230 223 231 235 240 247 253 260 270 274 282 286 281 267 272 273 275 275 278 276 278 274 272 275 276 236 234 239
214 103 124 164 186 198 196 187 193 218 223 228 240 245 250 264 266 266 267 275 276 275 273 267 269 269 270 274 279 280 283 279 273 279 281 279 276 267
204 149 160 180 209 217 180 194 219 235 245 246 255 266 263 251 248 253 257 256 263 262 261 263 265 267 268 272 275 277 279 276 273 281 285 281 277 276
204 198 199 195 205 209 215 217 222 223 238 253 255 252 244 245 248 248 254 257 262 267 267 267 269 271 275 277 272 273 277 280 281 282 281 280 277 276
207 214 216 219 226 228 229 230 231 235 239 245 250 252 251 251 253 248 247 253 262 266 268 261 261 273 269 263 260 271 275 278 281 277 275 278 279 279
213 226 229 227 230 234 238 243 245 244 242 244 248 251 251 253 255 253 250 255 262 266 267 260 253 262 274 280 262 246 274 281 283 277 273 277 282 287
225 234 237 237 235 237 240 244 247 246 244 248 252 253 253 254 257 258 256 259 263 265 264 255 250 255 267 281 284 271 247 270 275 276 277 277 280 286
223 233 239 240 238 238 240 242 243 245 249 251 254 255 255 257 262 265 263 262 262 262 262 261 267 271 280 282 275 272 263 246 268 279 285 283 283 279
228 232 237 241 242 241 240 240 242 242 244 247 253 256 253 251 255 260 265 264 260 262 269 273 269 252 257 262 270 277 280 277 250 249 261 271 285 286
235 235 237 238 241 242 242 241 243 245 243 245 249 253 253 254 254 254 256 257 261 259 260 261 256 254 257 263 271 276 279 283 282 272 260 239 256 271